(40) Harmonia
ephemeris date magn radius delta ra dec elong phase
Today30 May 202511.32.178 AU3.084 AU02h59m+14°22'22.0°10.0°
Opposition2 Jan 20269.02.277 AU1.294 AU06h51m+23°54'179.0°0.4°
(40) Harmonia - 2025-05-30
astro.vanbuitenen.nl


 
-1 year
-1 month
-1 day
Now
+1 day
+1 month
+1 year

The interactive orbit chart above shows the body's path through the solar system and its position at the given date. Green and blue lines are shown perpendicular to the ecliptic plane: Green if the path is above the ecliptic plane, blue if it is below. (Left-click and drag to rotate the view; Right-click and drag to move the view; Use scroll wheel to zoom in our out.)

The orbital elements of Harmonia are:

            e (Eccentricity)                : 0.0460364
            a (Semimajor axis)              : 2.2669577
            i (Inclination)                 : 4.25591
            Ω (Longitude of ascending node) : 94.15595
            ω (Argument of perihelion)      : 269.47054
            M (Mean anomaly)                : 22.93684
            Epoch                           : 2025 May 05

            L (Longitude of perihelion)     : 183.62503
            B (Latitude of perihelion)      : -4.25573
            P (Orbital period in years)     : 3.41            
        

The light curve chart below shows the estimated development of the minor planet's magnitude.


The all-sky chart below shows the path of the minor planet over the same period as the light curve. The current position is marked yellow.





The following chart shows the path of the minor planet in the next few days. The field of view is optimized for (~10x50) binoculars and finderscopes. A more printer-friendly version of the same chart can be found below.




Ephemerides:
Date       Time       RA (2000)    DEC (2000)    delta   radius  elong  phase   PA    magn
2025-05-30 00:00 UT   02 59 40.3   +14 22 37     3.084    2.178   22.0   10.0   247   11.3 
2025-05-30 04:10 UT   03 00 01.3   +14 24 10     3.084    2.178   22.1   10.1   247   11.3 
2025-05-31 00:00 UT   03 01 41.1   +14 31 31     3.081    2.178   22.4   10.2   248   11.3 
2025-06-01 00:00 UT   03 03 42.0   +14 40 19     3.077    2.179   22.9   10.4   248   11.3 
2025-06-02 00:00 UT   03 05 42.9   +14 49 02     3.073    2.179   23.3   10.6   248   11.4 
2025-06-03 00:00 UT   03 07 43.9   +14 57 40     3.069    2.179   23.8   10.8   249   11.4 
2025-06-04 00:00 UT   03 09 44.9   +15 06 13     3.064    2.179   24.2   11.0   249   11.4 
2025-06-05 00:00 UT   03 11 45.9   +15 14 40     3.060    2.180   24.7   11.2   249   11.4 
2025-06-06 00:00 UT   03 13 47.0   +15 23 03     3.056    2.180   25.1   11.4   249   11.4 
2025-06-07 00:00 UT   03 15 48.0   +15 31 20     3.051    2.180   25.6   11.6   250   11.4 
2025-06-08 00:00 UT   03 17 49.1   +15 39 31     3.047    2.181   26.0   11.8   250   11.4 
2025-06-09 00:00 UT   03 19 50.2   +15 47 38     3.042    2.181   26.5   12.0   250   11.4 
2025-06-10 00:00 UT   03 21 51.4   +15 55 39     3.037    2.181   26.9   12.2   250   11.4 
2025-06-11 00:00 UT   03 23 52.6   +16 03 34     3.033    2.182   27.4   12.4   251   11.4 
2025-06-12 00:00 UT   03 25 53.7   +16 11 25     3.028    2.182   27.8   12.5   251   11.4 
2025-06-13 00:00 UT   03 27 54.9   +16 19 10     3.023    2.182   28.3   12.7   251   11.4 
2025-06-14 00:00 UT   03 29 56.1   +16 26 49     3.018    2.183   28.7   12.9   251   11.4 
2025-06-15 00:00 UT   03 31 57.4   +16 34 23     3.013    2.183   29.2   13.1   252   11.4 


    Terminology:
            
    delta:  distance between minor planet and earth in AU
    radius: distance between minor planet and sun in AU
    magn:   magnitude (brightness) estimate    
    ra:     right ascension in hours (24h = 360deg)
    dec:    declination in degrees
    elong:  elongation in degrees (angle sun-earth-minor planet)    
    phase:  phase angle in degrees (angle sun-minor planet-earth)        
    AU:     Astronomical Unit (mean distance between earth and sun: 149597870.7 km
    

Orbital elements provided by the MPC (Minor Planet Center).
Calculations by a modified version of AAPlus, a C# implementation of the AA+ project by PJ Naughter from the algorithms presented in the book "Astronomical Algorithms" by Jean Meeus.
NGC2000 dso catalog and star labels from VizieR as provided by the Strasbourg astronomical Data Center.
Tycho2 catalog from the ESO archive.